McCall, ID

2:25 PM MDT on May 28, 2017 (GMT -0600)
McCall

Weather History for KMYL - October, 2011

Change the Weather History Date:

Wednesday, October 12, 2011

  Actual Average Record
Temperature  
Mean Temperature 41 °F 41 °F  
Max Temperature 51 °F 57 °F 82 °F (1991)
Min Temperature 31 °F 25 °F 10 °F (2002)
Degree Days  
Heating Degree Days 24 24  
Month to date heating degree days 229 266  
Since 1 July heating degree days 576 1031  
Cooling Degree Days 0 0  
Month to date cooling degree days 0 0  
Year to date cooling degree days 56 25  
Moisture  
Dew Point 32 °F    
Average Humidity 75    
Maximum Humidity 100    
Minimum Humidity 50    
Precipitation  
Precipitation 0.00 in 0.03 in 1.83 in (1962)
Month to date precipitation 1.44 0.40  
Year to date precipitation 20.61 14.32  
Sea Level Pressure  
Sea Level Pressure 30.22 in    
Wind  
Wind Speed 3 mph (South)    
Max Wind Speed 15 mph    
Max Gust Speed 21 mph    
Visibility 6 miles    
Events Fog    
T = Trace of Precipitation, MM = Missing Value Source: NWS Daily Summary

Daily Weather History Graph

Daily Weather History Graph

Search for Another Location

Airport or City:

Trip Planner

Search our weather history database for the weather conditions in past years. The results will help you decide how hot, cold, wet, or windy it might be!

Date:

Astronomy

Oct. 12, 2011 Rise Set
Actual Time 7:55 AM MDT 7:05 PM MDT
Civil Twilight 7:26 AM MDT 7:34 PM MDT
Nautical Twilight 6:52 AM MDT 8:08 PM MDT
Astronomical Twilight 6:18 AM MDT 8:42 PM MDT
Moon 7:04 PM MDT (10/12) 8:39 AM MDT (10/12)
Length of Visible Light 12h 08m
Length of Day
11h 09m
Full, 100% of the Moon is Illuminated
Oct 12
Full
Oct 19
Last Quarter
Oct 26
New
Nov 2
First Quarter
Nov 10
Full

Hourly Weather History & Observations

Time (MDT) Temp. Windchill Dew Point Humidity Pressure Visibility Wind Dir Wind Speed Gust Speed Precip Events Conditions
12:51 AM 33.1 °F 28.7 °F 32.0 °F 96% 30.17 in 10.0 mi NE 4.6 mph - N/A   Scattered Clouds
1:51 AM 32.0 °F - 30.9 °F 96% 30.18 in 10.0 mi Calm Calm - N/A   Partly Cloudy
2:14 AM 30.2 °F - 30.2 °F 100% 30.17 in 1.5 mi Calm Calm - N/A   Clear
2:17 AM 30.2 °F - 30.2 °F 100% 30.17 in 0.8 mi Calm Calm - N/A   Partly Cloudy
2:29 AM 30.2 °F - 30.2 °F 100% 30.17 in 1.2 mi Calm Calm - N/A   Partly Cloudy
2:33 AM 30.2 °F - 30.2 °F 100% 30.17 in 4.0 mi Calm Calm - N/A   Partly Cloudy
2:51 AM 32.0 °F - 30.9 °F 96% 30.19 in 10.0 mi Calm Calm - N/A   Scattered Clouds
3:51 AM 32.0 °F - 32.0 °F 100% 30.21 in 10.0 mi Calm Calm - N/A   Mostly Cloudy
5:01 AM 32.0 °F - 30.2 °F 93% 30.19 in 10.0 mi Calm Calm - N/A   Scattered Clouds
5:29 AM 30.2 °F - 30.2 °F 100% 30.18 in 10.0 mi Calm Calm - N/A   Mostly Cloudy
5:51 AM 30.9 °F - 30.9 °F 100% 30.20 in 10.0 mi Calm Calm - N/A   Overcast
6:05 AM 30.2 °F - 30.2 °F 100% 30.19 in 1.5 mi Calm Calm - N/A   Overcast
6:10 AM 30.2 °F - 30.2 °F 100% 30.19 in 0.8 mi Calm Calm - N/A   Mist
6:51 AM 33.1 °F - 33.1 °F 100% 30.22 in 0.2 mi Calm Calm - N/A Fog Fog
7:51 AM 30.9 °F - 30.9 °F 100% 30.24 in 0.2 mi Calm Calm - N/A Fog Light Freezing Fog
8:51 AM 32.0 °F - 30.9 °F 96% 30.27 in 0.2 mi Calm Calm - N/A Fog Fog
9:02 AM 32.0 °F - 32.0 °F 100% 30.23 in 1.2 mi Calm Calm - N/A   Overcast
9:05 AM 32.0 °F - 32.0 °F 100% 30.23 in 3.0 mi Calm Calm - N/A   Overcast
9:13 AM 33.8 °F - 32.0 °F 93% 30.23 in 10.0 mi Calm Calm - N/A   Overcast
9:28 AM 33.8 °F - 32.0 °F 93% 30.24 in 1.5 mi Calm Calm - N/A   Overcast
9:32 AM 33.8 °F - 33.8 °F 100% 30.24 in 0.8 mi Calm Calm - N/A   Overcast
9:51 AM 34.0 °F - 34.0 °F 100% 30.29 in 0.5 mi Calm Calm - N/A Fog Fog
9:59 AM 35.6 °F - 35.6 °F 100% 30.25 in 1.2 mi Calm Calm - N/A   Overcast
10:08 AM 35.6 °F - 35.6 °F 100% 30.25 in 2.5 mi Calm Calm - N/A   Overcast
10:17 AM 35.6 °F - 35.6 °F 100% 30.24 in 4.0 mi Calm Calm - N/A   Overcast
10:51 AM 39.0 °F - 37.0 °F 93% 30.29 in 10.0 mi Calm Calm - N/A   Overcast
11:14 AM 37.4 °F 34.9 °F 35.6 °F 93% 30.24 in 10.0 mi South 3.5 mph - N/A   Overcast
11:51 AM 44.1 °F 40.8 °F 37.9 °F 79% 30.27 in 10.0 mi South 5.8 mph - N/A   Overcast
12:51 PM 46.0 °F 42.5 °F 36.0 °F 68% 30.26 in 10.0 mi SSW 6.9 mph - N/A   Mostly Cloudy
1:51 PM 48.0 °F - 32.0 °F 54% 30.25 in 10.0 mi SSE 11.5 mph - N/A   Mostly Cloudy
2:51 PM 48.9 °F - 30.9 °F 50% 30.21 in 10.0 mi South 9.2 mph 17.3 mph N/A   Mostly Cloudy
3:51 PM 48.9 °F - 30.9 °F 50% 30.21 in 10.0 mi South 13.8 mph - N/A   Scattered Clouds
5:51 PM 48.0 °F - 34.0 °F 58% 30.22 in 10.0 mi SSW 8.1 mph - N/A   Mostly Cloudy
6:51 PM 45.0 °F 41.8 °F 34.0 °F 65% 30.23 in 10.0 mi South 5.8 mph - N/A   Overcast
7:51 PM 42.1 °F 40.2 °F 32.0 °F 67% 30.23 in 10.0 mi South 3.5 mph - N/A   Clear
8:51 PM 37.9 °F - 32.0 °F 79% 30.24 in 10.0 mi Calm Calm - N/A   Clear
9:51 PM 35.1 °F 32.2 °F 32.0 °F 89% 30.25 in 10.0 mi NE 3.5 mph - N/A   Clear
10:51 PM 34.0 °F - 30.9 °F 89% 30.24 in 10.0 mi Calm Calm - N/A   Scattered Clouds
11:51 PM 33.1 °F - 30.0 °F 89% 30.22 in 10.0 mi Calm Calm - N/A   Partly Cloudy